[[{"header":{"parameterUnit":"m.s-1","parameterCategory":1,"la1":30.2991,"la2":30.254,"lo1":-89.0895,"lo2":-89.0444,"dy":0.0017,"dx":0.0017,"nx":28,"ny":28,"refTime":"2024-04-05T03:00:00:Z","depth":0,"parameterNumber":2,"parameterNumberName":"U-component_of_WINDS"},"data":[0,0,0,0,0,0,0,0,0,0,0,0,0,0,0,0,0,0,0,0,0,0,0,0,0,0,0,0,0,0,0,0,0,0,0,0,0,0,0,0,0,0,0,0,0,0,0,0,0,0,0,0,0,0,0,0,0,0,3.229,3.2291,0,3.2394,3.2395,3.2396,3.2357,3.2355,3.2353,3.2351,3.2456,3.2461,3.2466,0,0,0,0,0,0,0,0,0,0,0,0,0,3.2058,3.2063,3.229,3.2291,3.2292,3.2393,3.2395,3.2396,3.2358,3.2355,3.2352,3.2349,3.2454,3.246,3.2466,0,0,0,0,0,0,0,0,0,0,0,0,0,3.216,3.2064,3.229,3.2286,3.2286,3.2393,3.2395,3.2397,3.2358,3.2355,3.2351,3.2348,3.2452,3.2459,3.2467,3.2584,0,0,3.249,3.2493,0,0,0,0,0,0,0,0,3.2154,3.2169,3.2285,3.2286,3.2287,3.2359,3.2352,3.2459,3.2359,3.2331,3.235,3.2346,3.2426,3.2436,3.2463,3.2589,3.2593,3.249,3.2495,3.2498,3.25,0,0,0,0,0,0,0,3.2147,3.2164,3.2331,3.2287,3.2288,3.2278,3.2289,3.2372,3.2397,3.2333,3.2331,3.2344,3.2426,3.2456,3.2465,3.2595,3.249,3.2497,3.2501,3.2504,3.2822,3.2825,0,0,0,0,0,0,3.214,3.2158,3.2328,3.2334,3.2211,3.2285,3.2297,3.2339,3.2396,3.2401,3.2346,3.2341,3.2445,3.2456,3.2469,3.2609,3.2498,3.2505,3.2509,3.2818,3.2822,3.2827,0,0,0,0,0,0,3.2135,3.2155,3.2323,3.2246,3.2266,3.2293,3.2341,3.2343,3.2373,3.2406,3.241,3.2372,3.2442,3.2458,3.2555,3.2612,3.2509,3.2515,3.2813,3.2819,3.2825,3.2891,0,0,0,0,0,0,3.2129,3.2154,3.2199,3.2247,3.227,3.2409,3.2344,3.2348,3.2386,3.238,3.2431,3.2436,3.2441,3.2545,3.2563,3.2621,3.2521,3.2808,3.2816,3.2823,3.2884,3.2898,3.2911,0,0,0,0,0,3.212,3.2213,3.2201,3.2222,3.2327,3.2412,3.2426,3.2429,3.2391,3.2436,3.2457,3.2435,3.2603,3.2555,3.2575,3.2636,3.2805,3.2814,3.2822,3.2878,3.2895,3.2911,0,0,0,0,0,0,3.217,3.2219,3.2207,3.2317,3.2361,3.2405,3.2462,3.2448,3.2503,3.2495,3.2497,3.2509,3.2609,3.2632,3.2578,3.2752,3.2698,3.2711,3.2733,3.275,3.2764,3.2756,3.2527,0,0,0,0,0,3.2194,3.226,3.2299,3.2393,3.2415,3.2435,3.2472,3.2472,3.2517,3.2535,3.2563,3.2608,3.267,3.2712,3.2772,3.2887,3.2898,3.2939,3.2953,3.2964,3.2975,3.3038,3.3057,3.2856,3.2856,3.2856,0,0,3.2244,3.2279,3.232,3.2404,3.2437,3.2505,3.2451,3.2524,3.2574,3.2546,3.2639,3.2662,3.2712,3.2819,3.2867,3.2841,3.3033,3.2975,3.2983,3.2989,3.3049,3.3068,3.3085,3.2862,3.2861,3.286,0,0,3.237,3.2403,3.2485,3.252,3.2571,3.2584,3.2604,3.2651,3.2665,3.2759,3.2739,3.2799,3.2907,3.2943,3.2976,3.3116,3.3097,3.3136,3.3206,3.3267,3.3283,3.3297,3.3346,3.3364,3.3147,3.3147,3.3147,0,3.2425,3.2526,3.2529,3.2604,3.2641,3.2619,3.2702,3.2736,3.2804,3.2831,3.28,3.2936,3.2968,3.3083,3.3117,3.3145,3.3167,3.3129,3.328,3.3295,3.3308,3.3355,3.3374,3.3151,3.3151,3.315,3.315,0,3.2591,3.2662,3.2722,3.2789,3.2833,3.2912,3.2926,3.2971,3.2966,3.2982,3.3079,3.3116,3.3183,3.3211,3.3207,3.3326,3.3308,3.3279,3.3225,3.3331,3.3375,3.3394,3.3157,3.3156,3.3155,3.3154,0,0,3.275,3.2818,3.284,3.2871,3.2926,3.2981,3.3059,3.3125,3.3162,3.3211,3.3276,3.3369,3.3343,3.338,3.338,3.3434,3.3542,3.3399,3.34,3.3424,3.3675,3.3695,3.3716,3.353,3.3534,3.3537,3.3671,0,3.288,3.3016,3.3021,3.3146,3.3211,3.3191,3.3259,3.3301,3.3318,3.3376,3.3394,3.346,3.3421,3.3443,3.3496,3.3518,3.3592,3.3508,3.3591,3.3593,3.3578,3.374,3.3762,3.3886,3.3688,3.3691,3.3693,0,3.3049,3.3103,3.3234,3.3281,3.3308,3.3369,3.343,3.3485,3.3532,3.3541,3.3583,3.3575,3.3655,3.3599,3.3708,3.3651,3.3685,3.3701,3.3706,3.3713,3.3649,3.3751,3.3926,3.3944,3.3721,3.3718,3.3716,0,3.3151,3.3256,3.3349,3.3375,3.3432,3.3475,3.3501,3.3545,3.3584,3.3637,3.3663,3.3725,3.3758,3.3807,3.3816,3.3774,3.3926,3.387,3.3935,3.3935,3.3967,3.3964,3.4149,3.399,3.399,3.3989,3.3989,0,3.3294,3.3375,3.3395,3.3452,3.3542,3.3547,3.3636,3.3659,3.3698,3.3758,3.3745,3.3802,3.3812,3.3871,3.3879,3.3968,3.3984,3.3993,3.3994,3.3994,3.3993,3.4015,3.4007,3.3994,3.3993,3.3992,3.3992,0,3.3423,3.344,3.3539,3.3585,3.3599,3.3663,3.3702,3.3757,3.3773,3.385,3.3868,3.3893,3.3962,3.3977,3.4059,3.4064,3.417,3.4163,3.4154,3.4153,3.4217,3.4211,3.4423,3.4451,3.4274,3.4275,3.4277,0,3.3514,3.3575,3.3628,3.3668,3.3696,3.376,3.3801,3.3808,3.3851,3.3909,3.3956,3.4024,3.4078,3.419,3.4215,3.4278,3.4272,3.4342,3.4281,3.4279,3.4272,3.4268,3.4274,3.4353,3.4355,3.4357,3.4358,0,3.3672,3.3677,3.3736,3.3798,3.3846,3.3895,3.3942,3.3975,3.3989,3.4037,3.4108,3.415,3.4234,3.4302,3.4365,3.4391,3.4377,3.4377,3.4395,3.4395,3.4388,3.4392,3.4185,3.4372,3.437,3.4369,3.4369,3.4368,3.3784,3.3838,3.3884,3.3949,3.3985,3.4029,3.4083,3.4106,3.4165,3.4234,3.4235,3.4312,3.4357,3.444,3.4471,3.4531,3.4509,3.4535,3.4542,3.4548,3.4554,3.4379,3.4542,3.4542,3.4542,3.4541,3.4541,0,3.3941,3.3969,3.403,3.4096,3.4148,3.4131,3.4181,3.4226,3.4294,3.4338,3.4392,3.4473,3.4539,3.457,3.4634,3.4677,3.4672,3.4693,3.469,3.4696,3.457,3.4548,3.4696,3.4696,3.4696,3.4696,3.4696,3.4696,3.4029,3.4119,3.413,3.4238,3.4266,3.4342,3.4372,3.4413,3.4448,3.4539,3.4594,3.4613,3.4652,3.472,3.4779,3.4786,3.481,3.4835,3.4839,3.4721,3.4705,3.469,3.4669,3.484,3.484,3.496,3.4961,3.4962]},{"header":{"parameterUnit":"m.s-1","parameterCategory":1,"la1":30.2991,"la2":30.254,"lo1":-89.0895,"lo2":-89.0444,"dy":0.0017,"dx":0.0017,"nx":28,"ny":28,"refTime":"2024-04-05T03:00:00:Z","depth":0,"parameterNumber":3,"parameterNumberName":"V-component_of_WINDS"},"data":[0,0,0,0,0,0,0,0,0,0,0,0,0,0,0,0,0,0,0,0,0,0,0,0,0,0,0,0,0,0,0,0,0,0,0,0,0,0,0,0,0,0,0,0,0,0,0,0,0,0,0,0,0,0,0,0,0,0,1.0548,1.0548,0,1.0509,1.0508,1.0508,1.0463,1.0463,1.0462,1.0461,1.0421,1.042,1.042,0,0,0,0,0,0,0,0,0,0,0,0,0,1.0585,1.0584,1.0548,1.0548,1.0547,1.0509,1.0508,1.0508,1.0463,1.0462,1.0462,1.0461,1.0421,1.042,1.042,0,0,0,0,0,0,0,0,0,0,0,0,0,1.0559,1.0584,1.0548,1.0521,1.0518,1.0509,1.0508,1.0507,1.0463,1.0462,1.0461,1.0461,1.0421,1.042,1.042,1.0435,0,0,1.0417,1.0417,0,0,0,0,0,0,0,0,1.0561,1.0558,1.0525,1.0523,1.0519,1.049,1.0506,1.0483,1.0464,1.0484,1.0461,1.046,1.0444,1.0442,1.0436,1.0433,1.0431,1.0417,1.0417,1.0417,1.0416,0,0,0,0,0,0,0,1.0563,1.056,1.0533,1.0525,1.0521,1.051,1.0505,1.0501,1.047,1.0482,1.0479,1.0475,1.0443,1.0437,1.0435,1.0431,1.0417,1.0417,1.0416,1.0416,1.0436,1.0437,0,0,0,0,0,0,1.0569,1.0561,1.0534,1.0531,1.0538,1.051,1.0505,1.05,1.047,1.0465,1.0476,1.0473,1.0439,1.0436,1.0434,1.0449,1.0417,1.0416,1.0416,1.0435,1.0436,1.0437,0,0,0,0,0,0,1.057,1.0567,1.0535,1.0545,1.0541,1.051,1.0506,1.05,1.0495,1.0465,1.0459,1.0476,1.0438,1.0435,1.0434,1.0447,1.0416,1.0415,1.0434,1.0435,1.0437,1.048,0,0,0,0,0,0,1.0571,1.0567,1.0573,1.0546,1.054,1.0538,1.0507,1.05,1.0493,1.0489,1.0464,1.0459,1.0437,1.0436,1.0434,1.0445,1.0414,1.0433,1.0435,1.0436,1.0477,1.0483,1.0487,0,0,0,0,0,1.0572,1.0587,1.0574,1.0571,1.0547,1.0539,1.0535,1.051,1.0495,1.05,1.0481,1.046,1.0446,1.0436,1.0434,1.0445,1.0432,1.0434,1.0436,1.0475,1.0482,1.0487,0,0,0,0,0,0,1.0617,1.0583,1.0568,1.0575,1.056,1.0531,1.0537,1.0518,1.0507,1.0504,1.0472,1.0467,1.0471,1.0458,1.0448,1.0457,1.0435,1.0437,1.0466,1.0472,1.0477,1.048,1.0414,0,0,0,0,0,1.0628,1.0624,1.0594,1.0603,1.0596,1.0568,1.0564,1.0545,1.0528,1.0522,1.0503,1.0487,1.0479,1.0475,1.0466,1.0475,1.0468,1.0481,1.0486,1.049,1.0492,1.0495,1.05,1.0444,1.0444,1.0444,0,0,1.065,1.0631,1.0631,1.0612,1.0598,1.0594,1.0563,1.0561,1.0558,1.0522,1.052,1.0506,1.0486,1.049,1.0491,1.048,1.0506,1.0493,1.0497,1.0496,1.0498,1.0503,1.0508,1.0446,1.0445,1.0445,0,0,1.0689,1.0674,1.0679,1.0666,1.0645,1.0626,1.0627,1.0601,1.059,1.0588,1.056,1.0556,1.0543,1.053,1.0521,1.0553,1.0533,1.0551,1.0577,1.058,1.0584,1.0588,1.0599,1.0603,1.0553,1.0553,1.0553,0,1.0719,1.0712,1.0684,1.0683,1.0675,1.0642,1.0646,1.0635,1.0612,1.0607,1.0594,1.0576,1.0561,1.0561,1.0569,1.0563,1.0563,1.0554,1.0586,1.059,1.0593,1.0603,1.0607,1.0555,1.0555,1.0555,1.0554,0,1.075,1.0746,1.0753,1.0732,1.0724,1.0726,1.0698,1.0693,1.0675,1.0657,1.0655,1.0635,1.0621,1.0619,1.0601,1.0616,1.061,1.0592,1.0569,1.0601,1.061,1.0613,1.0558,1.0558,1.0557,1.0556,0,0,1.0818,1.078,1.0783,1.0772,1.0746,1.0742,1.0742,1.0728,1.0724,1.071,1.0708,1.0697,1.068,1.067,1.0651,1.0653,1.0679,1.0635,1.0634,1.0643,1.0693,1.0707,1.0712,1.0664,1.0665,1.0666,1.0695,0,1.0851,1.0849,1.0823,1.0828,1.0824,1.0791,1.079,1.0774,1.0757,1.075,1.073,1.0723,1.0701,1.0695,1.0696,1.0675,1.0688,1.0673,1.0663,1.0663,1.0669,1.0717,1.0732,1.076,1.0698,1.0699,1.0699,0,1.0891,1.0878,1.0883,1.0856,1.0853,1.0853,1.0837,1.0831,1.0811,1.0798,1.0787,1.0764,1.0761,1.0739,1.0734,1.0724,1.0718,1.0708,1.0708,1.0707,1.0683,1.0717,1.0769,1.0773,1.0704,1.0704,1.0703,0,1.094,1.0924,1.0924,1.0916,1.0884,1.0885,1.0872,1.0851,1.0844,1.0829,1.0824,1.081,1.0802,1.0792,1.0765,1.0752,1.0763,1.0739,1.0752,1.0752,1.0756,1.0757,1.0809,1.0752,1.0752,1.0752,1.0752,0,1.0981,1.0985,1.0945,1.0946,1.0949,1.0918,1.0922,1.0905,1.0887,1.0883,1.0853,1.085,1.0815,1.0807,1.0786,1.0785,1.0782,1.0771,1.0765,1.0774,1.0775,1.077,1.0767,1.0753,1.0753,1.0752,1.0752,0,1.1036,1.101,1.1008,1.0978,1.097,1.0974,1.0947,1.0946,1.0926,1.0921,1.0918,1.0887,1.0876,1.0849,1.0831,1.0817,1.0821,1.0811,1.0828,1.0825,1.0839,1.0838,1.089,1.0895,1.0835,1.0835,1.0836,0,1.1065,1.1067,1.1036,1.1032,1.1019,1.1012,1.1004,1.0973,1.0966,1.0943,1.0944,1.0931,1.0919,1.0904,1.0879,1.0865,1.0854,1.0873,1.0852,1.086,1.0854,1.0855,1.0855,1.0878,1.0879,1.088,1.088,0,1.1118,1.1104,1.1094,1.1079,1.107,1.1057,1.1042,1.104,1.1005,1.0998,1.0987,1.0978,1.0959,1.0946,1.0928,1.0913,1.0891,1.0887,1.0889,1.0898,1.0908,1.0903,1.0841,1.0886,1.0885,1.0885,1.0885,1.0884,1.116,1.116,1.1139,1.1128,1.1113,1.11,1.1097,1.1076,1.1066,1.1049,1.103,1.1021,1.0999,1.0972,1.0959,1.0951,1.0939,1.0942,1.0943,1.0945,1.0948,1.0909,1.0947,1.0947,1.0947,1.0947,1.0947,0,1.1212,1.1196,1.1186,1.1166,1.1157,1.1136,1.1118,1.1112,1.1104,1.1086,1.1075,1.1061,1.1048,1.1022,1.1006,1.1004,1.0993,1.1001,1.1001,1.0998,1.096,1.0959,1.101,1.101,1.101,1.101,1.101,1.101,1.1238,1.1237,1.122,1.1211,1.1194,1.1185,1.1176,1.1163,1.1148,1.1134,1.1123,1.1106,1.1084,1.1067,1.1053,1.1046,1.1041,1.1053,1.1042,1.1007,1.1001,1.0995,1.0995,1.1052,1.1052,1.1081,1.1081,1.1081]}]]